Regional Weather Roundup
Issued by NWS Little Rock, AR

Home | Current Version | Previous Version | Text Only | Print | Product List | Glossary Off
Versions: 1 2 3 4 5 6 7 8 9 10 11 12 13 14 15 16 17 18 19 20 21 22 23 24 25 26 27 28 29 30 31

000
ASUS44 KLZK 210205
RWRLZK

WEATHER ROUNDUP FOR ARKANSAS
NATIONAL WEATHER SERVICE LITTLE ROCK AR
800 PM CST TUE FEB 20 2018

NOTE: "FAIR" INDICATES FEW OR NO CLOUDS BELOW 12,000 FEET WITH NO
SIGNIFICANT WEATHER AND/OR OBSTRUCTIONS TO VISIBILITY.

ARZ001-003-010-029-210300-
NORTHWEST ARKANSAS

CITY           SKY/WX    TMP DP  RH WIND       PRES   REMARKS
FAYETTEVILLE   LGT RAIN  38  38 100 VRB7      30.08R
FORT SMITH     RAIN      43  42  97 W17       30.07R FOG
HARRISON       HVY RAIN  38  38 100 NW8       30.08F FOG
BENTONVILLE    LGT RAIN  35  34  96 N8        30.13R WCI  29
ROGERS         MIX PCPN  35  34  96 NW9       30.12R WCI  28
SILOAM SPGS    LGT RAIN  35  34  96 N9          N/A  WCI  28
HIGHFILL       LGT RAIN  36  35  96 N14       30.11R
SPRINGDALE     LGT RAIN  37  37 100 N7G14     30.10R
$$

ARZ004-005-016-210300-
NORTH CENTRAL ARKANSAS

CITY           SKY/WX    TMP DP  RH WIND       PRES   REMARKS
BATESVILLE     CLOUDY    74  63  68 SE12G18   29.96F
FLIPPIN        HVY RAIN  44  43  96 N13G23    30.06R FOG
MTN HOME       HVY RAIN  47  47 100 NW6G21    30.03R FOG
$$

ARZ040-041-210300-
WEST CENTRAL ARKANSAS

CITY           SKY/WX    TMP DP  RH WIND       PRES   REMARKS
MENA           CLOUDY   N/A N/A N/A CALM      30.01R
MOUNT IDA      RAIN      60  60 100 N9        29.97S FOG
$$

ARZ009-017-025-026-028-210300-
NORTHEAST ARKANSAS

CITY           SKY/WX    TMP DP  RH WIND       PRES   REMARKS
JONESBORO      MOCLDY    70  65  84 S8        30.00R
NEWPORT          N/A     71  65  81 SE16      29.98S
WALNUT RIDGE   FAIR      71  65  81 S16       29.98S
BLYTHEVILLE    FAIR      71  63  75 S15G22    30.03F
$$

ARZ022-023-033-042-044-210300-
CENTRAL ARKANSAS

CITY           SKY/WX    TMP DP  RH WIND       PRES   REMARKS
LITTLE ROCK    CLOUDY    74  62  66 S13       29.96S
JACKSONVILLE   MOCLDY    74  64  70 SE9       29.95S
SEARCY         MOCLDY    74  66  76 S14       29.97S
HOT SPRINGS    TSTM      64  64 100 CALM      30.02R FOG
RUSSELLVILLE   TSTM      56  55  97 NW10      30.00F FOG
CLINTON        RAIN      63  63 100 CALM      29.94F VSB 1/2
$$

ARZ036-210300-
EAST ARKANSAS

CITY           SKY/WX    TMP DP  RH WIND       PRES   REMARKS
WEST MEMPHIS   MOCLDY    71  64  78 SE13      30.03S
$$

ARZ050-053-066-070-073-210300-
SOUTHWEST ARKANSAS

CITY           SKY/WX    TMP DP  RH WIND       PRES   REMARKS
ARKADELPHIA    CLOUDY    70  66  88 SW8       29.99R
CAMDEN         CLOUDY    73  66  78 S10       30.01R
TEXARKANA      LGT RAIN  70  68  93 S13       29.97S
EL DORADO      FAIR      72  70  93 S8        30.03R
DE QUEEN       CLOUDY    63  63 100 NE5       29.94S
$$

ARZ056-057-069-210300-
SOUTHEAST ARKANSAS

CITY           SKY/WX    TMP DP  RH WIND       PRES   REMARKS
PINE BLUFF     CLOUDY    71  65  81 S13       30.00R
STUTTGART      CLOUDY    74  64  71 S15       30.00R
MONTICELLO       N/A     73  64  73 S8        30.03R

$$






USA.gov is the U.S. government's official web portal to all federal, state and local government web resources and services.